TimeEDT,TemperatureF,Dew PointF,Humidity,Sea Level PressureIn,VisibilityMPH,Wind Direction,Wind SpeedMPH,Gust SpeedMPH,PrecipitationIn,Events,Conditions,WindDirDegrees,DateUTC
12:56 AM,59.0,57.9,96,29.97,6.0,ENE,10.4,-,0.00,,Overcast,60,2011-10-13 04:56:00
1:15 AM,59.0,57.2,94,29.96,3.0,ENE,11.5,-,0.00,Rain,Light Rain,60,2011-10-13 05:15:00
1:56 AM,59.0,57.9,96,29.93,2.5,ENE,11.5,-,0.05,Rain,Heavy Rain,60,2011-10-13 05:56:00
2:00 AM,59.0,57.2,94,29.93,2.5,NE,10.4,-,0.02,Rain,Heavy Rain,50,2011-10-13 06:00:00
2:10 AM,59.0,57.2,94,29.92,3.0,NE,11.5,-,0.04,Rain,Rain,50,2011-10-13 06:10:00
2:24 AM,59.0,57.2,94,29.91,8.0,NE,13.8,-,0.04,Rain,Light Rain,50,2011-10-13 06:24:00
2:52 AM,60.8,57.2,88,29.89,10.0,ENE,12.7,-,0.04,,Overcast,60,2011-10-13 06:52:00
2:56 AM,60.1,57.9,93,29.89,9.0,NE,15.0,-,0.04,Rain,Light Rain,50,2011-10-13 06:56:00
3:22 AM,60.8,57.2,88,29.89,10.0,NE,12.7,-,0.00,,Overcast,50,2011-10-13 07:22:00
3:56 AM,60.1,57.9,93,29.87,5.0,NE,12.7,-,0.00,Rain,Light Rain,40,2011-10-13 07:56:00
4:15 AM,60.8,59.0,94,29.87,8.0,NE,10.4,-,0.00,Rain,Light Rain,40,2011-10-13 08:15:00
4:56 AM,60.1,59.0,96,29.85,6.0,NNE,12.7,-,0.06,Rain,Light Rain,30,2011-10-13 08:56:00
5:07 AM,60.8,59.0,94,29.84,10.0,NE,11.5,-,0.00,Rain,Light Rain,40,2011-10-13 09:07:00
5:47 AM,60.8,59.0,94,29.85,3.0,NE,9.2,-,0.00,Rain,Light Rain,40,2011-10-13 09:47:00
5:56 AM,61.0,60.1,97,29.85,3.0,NE,10.4,-,0.00,Rain,Light Rain,50,2011-10-13 09:56:00
6:38 AM,60.8,60.8,100,29.82,10.0,NE,12.7,-,0.01,Rain,Rain,40,2011-10-13 10:38:00
6:56 AM,61.0,60.1,97,29.83,10.0,NNE,9.2,-,0.03,Rain,Light Rain,20,2011-10-13 10:56:00
7:32 AM,60.8,59.0,94,29.83,10.0,NNE,12.7,-,0.00,,Overcast,20,2011-10-13 11:32:00
7:56 AM,61.0,59.0,93,29.82,10.0,NNE,13.8,-,0.00,,Overcast,30,2011-10-13 11:56:00
8:08 AM,60.8,59.0,94,29.83,10.0,NNE,11.5,-,N/A,,Overcast,30,2011-10-13 12:08:00
8:56 AM,62.1,60.1,93,29.82,10.0,NNE,11.5,-,0.00,Rain,Light Rain,30,2011-10-13 12:56:00
9:56 AM,64.0,61.0,90,29.81,10.0,NNE,10.4,-,0.00,,Overcast,20,2011-10-13 13:56:00
10:56 AM,66.0,63.0,90,29.79,10.0,NNE,11.5,-,N/A,,Overcast,20,2011-10-13 14:56:00
11:56 AM,66.9,63.0,87,29.79,10.0,NNE,8.1,-,N/A,,Overcast,20,2011-10-13 15:56:00
12:09 PM,66.2,62.6,88,29.79,10.0,NNE,9.2,-,N/A,,Overcast,30,2011-10-13 16:09:00
12:56 PM,68.0,63.0,84,29.77,10.0,NNE,10.4,-,N/A,,Overcast,20,2011-10-13 16:56:00
1:56 PM,69.1,64.0,84,29.76,10.0,North,9.2,-,N/A,,Overcast,10,2011-10-13 17:56:00
2:56 PM,70.0,64.0,81,29.75,10.0,NNE,9.2,-,N/A,,Overcast,30,2011-10-13 18:56:00
3:56 PM,69.1,64.0,84,29.75,10.0,NNE,3.5,-,N/A,,Overcast,30,2011-10-13 19:56:00
4:56 PM,68.0,63.0,84,29.75,10.0,NNE,5.8,-,N/A,,Overcast,20,2011-10-13 20:56:00
5:56 PM,66.0,62.1,87,29.76,10.0,North,5.8,-,N/A,,Overcast,10,2011-10-13 21:56:00
6:56 PM,64.9,63.0,93,29.77,9.0,NE,5.8,-,N/A,,Overcast,40,2011-10-13 22:56:00
7:56 PM,64.9,62.1,90,29.78,10.0,ENE,4.6,-,N/A,,Overcast,60,2011-10-13 23:56:00
8:13 PM,64.4,62.6,94,29.79,10.0,NE,5.8,-,N/A,,Overcast,50,2011-10-14 00:13:00
8:56 PM,63.0,62.1,97,29.79,6.0,NE,5.8,-,N/A,,Overcast,40,2011-10-14 00:56:00
9:52 PM,64.4,62.6,94,29.79,10.0,ENE,5.8,-,N/A,,Overcast,60,2011-10-14 01:52:00
9:56 PM,64.0,62.1,93,29.79,10.0,ENE,4.6,-,N/A,,Overcast,60,2011-10-14 01:56:00
10:56 PM,63.0,63.0,100,29.77,4.0,ENE,5.8,-,N/A,,Overcast,60,2011-10-14 02:56:00
11:56 PM,64.0,63.0,96,29.75,10.0,ENE,6.9,-,N/A,,Overcast,60,2011-10-14 03:56:00